Weather History for Keene, NH

Change the Weather History Date:

Friday, February 8, 2013

  Actual Average Record
Temperature  
Mean Temperature 20 °F -  
Max Temperature 24 °F 31 °F 60 °F (1933)
Min Temperature 17 °F 6 °F -18 °F (1967)
Degree Days  
Heating Degree Days 44    
Moisture  
Dew Point 12 °F    
Average Humidity 69    
Maximum Humidity 86    
Minimum Humidity 33    
Precipitation  
Precipitation 0.01 in - - ()
Sea Level Pressure  
Sea Level Pressure 30.13 in    
Wind  
Wind Speed 6 mph (NNE)    
Max Wind Speed 21 mph    
Max Gust Speed 29 mph    
Visibility 6 miles    
Events      
Averages and records for this station are not official NWS values.
T = Trace of Precipitation, MM = Missing Value Source: NWS Daily Summary

Daily Weather History Graph

Daily Weather History Graph

Search for Another Location

Airport:

Trip Planner

Search our weather history database for the weather conditions in past years. The results will help you decide how hot, cold, wet, or windy it might be!

Date:

Astronomy

Feb. 08, 2013 Rise Set
Actual Time 6:55 AM EST 5:11 PM EST
Civil Twilight 6:25 AM EST 5:41 PM EST
Nautical Twilight 5:52 AM EST 6:14 PM EST
Astronomical Twilight 5:19 AM EST 6:47 PM EST
Moon 5:23 AM EST (2/8) 3:40 PM EST (2/8)
Length of Visible Light 11h 15m
Length of Day
10h 16m
Waning Crescent, 3% of the Moon is Illuminated
Feb 8
Waning Crescent
Feb 10
New
Feb 17
First Quarter
Feb 25
Full
Mar 4
Last Quarter

Hourly Weather History & Observations

Time (EST) Temp. Windchill Dew Point Humidity Pressure Visibility Wind Dir Wind Speed Gust Speed Precip Events Conditions
12:15 AM 23.0 °F - -2.2 °F 33% 30.44 in 10.0 mi Calm Calm - N/A   Overcast
12:35 AM 23.0 °F - -2.2 °F 33% 30.43 in 10.0 mi Calm Calm - N/A   Mostly Cloudy
12:55 AM 23.0 °F - -0.4 °F 36% 30.43 in 10.0 mi Calm Calm - N/A   Clear
1:15 AM 23.0 °F 17.0 °F -2.2 °F 33% 30.41 in 10.0 mi SE 4.6 mph - N/A   Clear
1:55 AM 23.0 °F - -0.4 °F 36% 30.41 in 10.0 mi Calm Calm - N/A   Partly Cloudy
2:15 AM 23.0 °F 18.4 °F -0.4 °F 36% 30.40 in 10.0 mi SSE 3.5 mph - N/A   Partly Cloudy
2:35 AM 23.0 °F 18.4 °F 1.4 °F 39% 30.39 in 10.0 mi South 3.5 mph - N/A   Partly Cloudy
2:55 AM 24.8 °F 19.1 °F 3.2 °F 40% 30.37 in 10.0 mi SSW 4.6 mph - N/A   Mostly Cloudy
3:15 AM 24.8 °F 19.1 °F 6.8 °F 46% 30.36 in 10.0 mi South 4.6 mph - N/A   Overcast
3:35 AM 23.0 °F 15.8 °F 6.8 °F 50% 30.35 in 10.0 mi NNE 5.8 mph - N/A   Scattered Clouds
3:55 AM 23.0 °F 14.7 °F 3.2 °F 43% 30.34 in 10.0 mi NE 6.9 mph - N/A   Mostly Cloudy
4:35 AM 23.0 °F 17.0 °F 5.0 °F 46% 30.33 in 10.0 mi NE 4.6 mph - N/A   Overcast
4:55 AM 23.0 °F 18.4 °F 6.8 °F 50% 30.34 in 10.0 mi NE 3.5 mph - N/A   Overcast
5:15 AM 23.0 °F 17.0 °F 6.8 °F 50% 30.33 in 10.0 mi ENE 4.6 mph - N/A   Overcast
5:35 AM 23.0 °F 18.4 °F 8.6 °F 54% 30.32 in 10.0 mi ENE 3.5 mph - N/A   Overcast
5:55 AM 23.0 °F - 8.6 °F 54% 30.32 in 10.0 mi Calm Calm - N/A   Overcast
6:15 AM 23.0 °F - 10.4 °F 59% 30.32 in 10.0 mi Calm Calm - N/A   Overcast
6:35 AM 23.0 °F - 12.2 °F 63% 30.31 in 10.0 mi Calm Calm - N/A   Overcast
6:55 AM 23.0 °F 17.0 °F 12.2 °F 63% 30.30 in 10.0 mi NNE 4.6 mph - N/A   Overcast
7:15 AM 23.0 °F - 14.0 °F 68% 30.30 in 10.0 mi Calm Calm - N/A   Overcast
7:35 AM 23.0 °F 17.0 °F 15.8 °F 74% 30.30 in 10.0 mi NNE 4.6 mph - N/A   Overcast
7:55 AM 23.0 °F 13.9 °F 15.8 °F 74% 30.29 in 10.0 mi ENE 8.1 mph - N/A   Overcast
8:15 AM 24.8 °F 17.9 °F 15.8 °F 69% 30.29 in 10.0 mi ENE 5.8 mph - N/A   Overcast
8:35 AM 24.8 °F 20.5 °F 15.8 °F 69% 30.28 in 10.0 mi NE 3.5 mph - N/A   Overcast
8:55 AM 23.0 °F 17.0 °F 15.8 °F 74% 30.26 in 10.0 mi North 4.6 mph - N/A   Overcast
9:15 AM 23.0 °F 14.7 °F 15.8 °F 74% 30.25 in 10.0 mi North 6.9 mph - N/A   Overcast
9:35 AM 23.0 °F 15.8 °F 15.8 °F 74% 30.25 in 10.0 mi NNE 5.8 mph - N/A   Overcast
9:55 AM 24.8 °F 19.1 °F 15.8 °F 69% 30.25 in 10.0 mi NE 4.6 mph - N/A   Overcast
10:15 AM 23.0 °F 13.1 °F 15.8 °F 74% 30.25 in 10.0 mi NE 9.2 mph - N/A   Overcast
10:35 AM 23.0 °F 13.1 °F 15.8 °F 74% 30.24 in 10.0 mi North 9.2 mph - N/A   Overcast
10:55 AM 23.0 °F 15.8 °F 15.8 °F 74% 30.23 in 10.0 mi NNE 5.8 mph - N/A   Overcast
11:15 AM 21.2 °F 9.5 °F 15.8 °F 80% 30.21 in 8.0 mi North 11.5 mph - N/A   Overcast
11:35 AM 23.0 °F 13.9 °F 15.8 °F 74% 30.20 in 4.0 mi NE 8.1 mph - N/A   Overcast
11:55 AM 21.2 °F 7.8 °F 15.8 °F 80% 30.18 in 8.0 mi NNE 15.0 mph 19.6 mph N/A   Overcast
12:15 PM 21.2 °F 8.9 °F 15.8 °F 80% 30.17 in 9.0 mi NE 12.7 mph 20.7 mph N/A   Overcast
12:35 PM 21.2 °F 8.9 °F 14.0 °F 74% 30.15 in 8.0 mi NE 12.7 mph 17.3 mph N/A   Overcast
12:55 PM 21.2 °F 8.9 °F 12.2 °F 68% 30.14 in 10.0 mi NE 12.7 mph 21.9 mph N/A   Overcast
1:15 PM 21.2 °F 8.3 °F 14.0 °F 74% 30.13 in 10.0 mi NE 13.8 mph 19.6 mph N/A   Overcast
1:35 PM 21.2 °F 8.3 °F 14.0 °F 74% 30.11 in 10.0 mi NE 13.8 mph 21.9 mph N/A   Overcast
1:55 PM 21.2 °F 6.8 °F 14.0 °F 74% 30.09 in 5.0 mi ENE 17.3 mph 26.5 mph N/A   Overcast
2:15 PM 21.2 °F 9.5 °F 14.0 °F 74% 30.08 in 3.0 mi NE 11.5 mph 26.5 mph N/A   Overcast
2:35 PM 21.2 °F 11.7 °F 14.0 °F 74% 30.07 in 1.5 mi NE 8.1 mph 21.9 mph N/A   Overcast
2:55 PM 21.2 °F 9.5 °F 14.0 °F 74% 30.05 in 2.0 mi ENE 11.5 mph 19.6 mph N/A   Overcast
3:15 PM 21.2 °F 9.5 °F 14.0 °F 74% 30.05 in 2.0 mi NE 11.5 mph 19.6 mph N/A   Overcast
3:35 PM 21.2 °F 10.9 °F 12.2 °F 68% 30.03 in 1.5 mi ENE 9.2 mph 17.3 mph N/A   Overcast
3:55 PM 21.2 °F 12.6 °F 14.0 °F 74% 30.02 in 1.0 mi NE 6.9 mph - N/A   Overcast
4:15 PM 19.4 °F 14.3 °F 15.8 °F 86% 30.01 in 0.8 mi NNE 3.5 mph - N/A   Overcast
4:35 PM 19.4 °F 8.6 °F 15.8 °F 86% 29.99 in 1.0 mi North 9.2 mph - N/A   Overcast
4:55 PM 19.4 °F 7.9 °F 14.0 °F 80% 29.98 in 1.0 mi NNE 10.4 mph 16.1 mph N/A   Overcast
5:15 PM 19.4 °F 6.0 °F 14.0 °F 80% 29.97 in 1.0 mi NNE 13.8 mph 20.7 mph N/A   Overcast
5:35 PM 19.4 °F 6.6 °F 14.0 °F 80% 29.96 in 1.5 mi NNE 12.7 mph - N/A   Overcast
5:55 PM 19.4 °F 9.5 °F 14.0 °F 80% 29.96 in 1.5 mi North 8.1 mph - N/A   Overcast
6:15 PM 19.4 °F 5.5 °F 14.0 °F 80% 29.95 in 1.0 mi NE 15.0 mph 21.9 mph N/A   Overcast
6:35 PM 19.4 °F 9.5 °F 12.2 °F 74% 29.93 in 1.8 mi North 8.1 mph 25.3 mph N/A   Overcast
6:55 PM 19.4 °F 8.6 °F 14.0 °F 80% 29.94 in 1.0 mi NNE 9.2 mph 17.3 mph N/A   Overcast
7:15 PM 19.4 °F 8.6 °F 14.0 °F 80% 29.91 in 1.0 mi NNE 9.2 mph 21.9 mph N/A   Overcast
7:35 PM 19.4 °F 8.6 °F 15.8 °F 86% 29.90 in 0.8 mi NNW 9.2 mph - N/A   Overcast
7:55 PM 19.4 °F 7.2 °F 14.0 °F 80% 29.89 in 0.8 mi North 11.5 mph - 0.01 in   Overcast
8:15 PM 19.4 °F 7.2 °F 15.8 °F 86% 29.88 in 0.8 mi North 11.5 mph 17.3 mph N/A   Overcast
8:35 PM 17.6 °F 5.0 °F 14.0 °F 86% 29.87 in 1.0 mi North 11.5 mph 20.7 mph N/A   Overcast
8:55 PM 17.6 °F 3.2 °F 14.0 °F 86% 29.86 in 1.2 mi North 15.0 mph 18.4 mph N/A   Overcast
9:15 PM 17.6 °F 4.3 °F 12.2 °F 79% 29.86 in 1.2 mi NNE 12.7 mph 20.7 mph N/A   Overcast
9:35 PM 17.6 °F 3.2 °F 12.2 °F 79% 29.84 in 1.2 mi NNE 15.0 mph - N/A   Overcast
9:55 PM 17.6 °F 2.2 °F 12.2 °F 79% 29.82 in 1.5 mi North 17.3 mph 25.3 mph N/A   Overcast
10:15 PM 17.6 °F 3.2 °F 12.2 °F 79% 29.80 in 1.2 mi NNE 15.0 mph 20.7 mph N/A   Overcast
10:35 PM 17.6 °F 2.2 °F 12.2 °F 79% 29.79 in 1.0 mi NNE 17.3 mph 23.0 mph N/A   Overcast
10:55 PM 17.6 °F 1.3 °F 12.2 °F 79% 29.77 in 0.8 mi North 19.6 mph 28.8 mph N/A   Overcast
11:15 PM 17.6 °F 0.9 °F 12.2 °F 79% 29.76 in 0.8 mi North 20.7 mph 28.8 mph N/A   Overcast
11:35 PM 17.6 °F 2.2 °F 14.0 °F 86% 29.76 in 0.8 mi North 17.3 mph 26.5 mph N/A   Overcast
11:55 PM 17.6 °F 3.7 °F 14.0 °F 86% 29.77 in 0.5 mi North 13.8 mph - N/A   Overcast